Regional Weather Roundup
Issued by NWS

Home | Current Version | Previous Version | Text Only | Print | Product List | Glossary Off
Versions: 1 2 3 4 5 6 7 8 9 10 11 12 13 14 15 16 17 18 19 20 21 22 23 24 25 26 27 28 29 30 31 32 33 34 35 36 37 38 39 40 41 42 43 44 45 46 47 48 49 50

000
ASUS43 KDTX 170901
RWRMI
MICHIGAN HOURLY REGIONAL WEATHER ROUNDUP
NATIONAL WEATHER SERVICE DETROIT/PONTIAC MI
500 AM EDT WED SEP 17 2014

NOTE: "FAIR" INDICATES FEW OR NO CLOUDS BELOW 12,000 FEET WITH NO
SIGNIFICANT WEATHER AND/OR OBSTRUCTION TO VISIBILITY.

MIZ047>049-052>055-059>063-066>070-074>076-081>083-171000-
SOUTHEAST LOWER MICHIGAN

CITY           SKY/WX    TMP DP  RH WIND       PRES   REMARKS
ADRIAN         CLEAR     41  39  93 CALM      30.08F
ALMA           CLEAR     39  39  98 CALM      30.06S FOG
ANN ARBOR      FOG       36  34  92 CALM      30.06F VSB 3/4
BAD AXE        CLEAR     40  40 100 CALM      30.04S
CARO           CLEAR     39  39  99 CALM      30.05S
DETROIT CITY   MOCLDY    49  43  80 CALM      30.07S
DETROIT        PTCLDY    46  43  89 CALM      30.07S
FLINT          CLEAR     44  40  85 CALM      30.07F
GROSSE ILE     CLEAR     48  45  87 CALM      30.06S
HILLSDALE      FOG       37  37 100 CALM      30.07S VSB 1/2
HOWELL         CLEAR     40  39  97 CALM      30.06S

CITY           SKY/WX    TMP DP  RH WIND       PRES   REMARKS
JACKSON        CLEAR     38  37  97 CALM      30.07S
LAMBERTVILLE   CLEAR     43  41  93 CALM      30.07F
LANSING        CLEAR     41  39  93 CALM      30.07S
LAPEER         FAIR      39  38  99 CALM      30.05F FOG
MASON          CLEAR     39  38  97 CALM      30.06F FOG
MT. CLEMENS    PTCLDY    47  43  83 W3        30.04F
PONTIAC        CLEAR     45  41  86 NW3       30.04F
PORT HOPE        N/A     48  43  82 SW7       30.01S
PORT HURON     FOG       41  41 100 CALM      30.05F VSB 1/2
TRI CITIES     CLEAR     45  41  86 SW5       30.05F
TROY           PTCLDY    48  44  85 CALM      30.07S
SAGINAW HB     CLEAR     43  43 100 CALM      30.04S
$$
MIZ043>046-050>051-056>058-064>065-071>073-077>080-171000-
SOUTHWEST LOWER MICHIGAN

CITY           SKY/WX    TMP DP  RH WIND       PRES   REMARKS
BATTLE CREEK   CLEAR     41  38  89 CALM      30.07S
BENTON HARBOR  CLEAR     40  39  97 CALM      30.06F
BIG RAPIDS     CLEAR     38  38 100 CALM      30.04S
COLDWATER      PTCLDY    40  40  97 CALM      30.07F
FREMONT        FAIR      40  39  99 CALM      30.04S
HOLLAND        CLEAR     44  41  89 CALM      30.06F
GRAND RAPIDS   CLEAR     41  39  93 S6        30.06F
IONIA          FAIR      39  38  97 CALM      30.05S
KALAMAZOO      FOG       39  37  92 CALM      30.07F VSB 3/4
LUDINGTON      CLEAR     40  39  98 E3        30.03F
MARSHALL       CLEAR     36  35  97 CALM      30.07S FOG
MOUNT PLEASANT CLEAR     40  39  95 CALM      30.03S
MUSKEGON       CLEAR     41  38  89 SE5       30.05F
SOUTH HAVEN    CLEAR     42  41  98 CALM      30.06F
$$
MIZ016>042-171000-
NORTHERN LOWER MICHIGAN

CITY           SKY/WX    TMP DP  RH WIND       PRES   REMARKS
ALPENA         PTCLDY    47  43  86 SW3       29.98F
BEAVER ISLAND  CLOUDY    50  49  98 CALM      29.96F
BELLAIRE       PTCLDY    46  42  89 CALM      30.00S
CADILLAC       CLEAR     38  38  99 CALM      30.02F
CHARLEVOIX     CLOUDY    57  52  82 SW5       29.99F
FRANKFORT      CLEAR     49  45  86 CALM      30.00F
GAYLORD        CLEAR     44  42  93 SW6       29.99F
GRAYLING       CLEAR     46  45  96 W5        30.01F
HARBOR SPRINGS CLOUDY    53  49  84 SW3       29.97S
HOUGHTON LAKE  CLEAR     48  43  82 SW6       30.02F
MANISTEE       CLEAR     39  37  93 E5        30.03S
OSCODA         CLEAR     45  42  89 SW5       29.99F
PELLSTON       PTCLDY    45  43  93 CALM      29.96F
ROGERS CITY    CLEAR     46  45  96 CALM      29.99S
TRAVERSE CITY  CLEAR     51  46  83 CALM      29.99F
$$
MIZ007>008-015-171000-
EASTERN UPPER MICHIGAN

CITY           SKY/WX    TMP DP  RH WIND       PRES   REMARKS
KINROSS        CLOUDY    48  46  93 N3        29.96F
MACKINAC ISLAN MOCLDY    49  47  95 NE6       29.96F
NEWBERRY       MOCLDY    43  42  98 CALM      29.95F
S. S. MARIE    CLOUDY    47  44  90 E3        29.96F
$$
MIZ004>006-011>014-085-171000-
CENTRAL UPPER MICHIGAN

CITY           SKY/WX    TMP DP  RH WIND       PRES   REMARKS
MANISTIQUE     PTCLDY    41  41  99 CALM      29.95F
ESCANABA       CLOUDY    48  45  87 SW3       29.96S
MENOMINEE      CLEAR     46  43  87 W5        29.98S
SAWYER-GWINN   CLOUDY    47  44  90 S5        29.94F
$$
MIZ001>003-009>011-084-171000-
WESTERN UPPER MICHIGAN

CITY           SKY/WX    TMP DP  RH WIND       PRES   REMARKS
IRON MOUNTAIN  CLOUDY    50  43  77 CALM      29.94F
HOUGHTON       MOCLDY    47  44  90 CALM      29.91F
COPPER HARBOR    N/A     48  45  89 SW5       29.91F
IRONWOOD       CLEAR     50  43  76 SW7       29.93R
$$

ABBREVIATIONS USED IN REMARKS
   TC - TEMPERATURE IN CELSIUS
  WCI - WIND CHILL INDEX
   HX - HEAT INDEX
  VSB - VISIBILITY



USA.gov is the U.S. government's official web portal to all federal, state and local government web resources and services.